Time,TemperatureF,DewpointF,PressureIn,WindDirection,WindDirectionDegrees,WindSpeedMPH,WindSpeedGustMPH,Humidity,HourlyPrecipIn,Conditions,Clouds,dailyrainin,SoftwareType,DateUTC
2013-01-20 00:08:00,3.4,-4.0,30.38,NNW,348,4.0,13.0,71,0.00,,,0.00,weatherlink.com 1.10,2013-01-20 06:08:00,
2013-01-20 00:23:00,3.3,-4.0,30.39,WNW,293,4.0,13.0,71,0.00,,,0.00,weatherlink.com 1.10,2013-01-20 06:23:00,
2013-01-20 00:38:00,3.2,-4.0,30.39,NW,313,7.0,12.0,71,0.00,,,0.00,weatherlink.com 1.10,2013-01-20 06:38:00,
2013-01-20 00:53:00,3.0,-4.0,30.39,WNW,284,0.0,10.0,72,0.00,,,0.00,weatherlink.com 1.10,2013-01-20 06:53:00,
2013-01-20 01:08:00,2.8,-5.0,30.39,NW,310,1.0,11.0,71,0.00,,,0.00,weatherlink.com 1.10,2013-01-20 07:08:00,
2013-01-20 01:23:00,2.5,-5.0,30.40,NW,306,6.0,11.0,71,0.00,,,0.00,weatherlink.com 1.10,2013-01-20 07:23:00,
2013-01-20 01:38:00,2.2,-5.0,30.41,West,277,5.0,8.0,72,0.00,,,0.00,weatherlink.com 1.10,2013-01-20 07:38:00,
2013-01-20 01:54:00,2.0,-5.0,30.42,WNW,300,4.0,10.0,72,0.00,,,0.00,weatherlink.com 1.10,2013-01-20 07:54:00,
2013-01-20 02:09:00,2.0,-5.0,30.43,SW,223,3.0,11.0,72,0.00,,,0.00,weatherlink.com 1.10,2013-01-20 08:09:00,
2013-01-20 02:24:00,1.7,-5.0,30.45,WNW,290,5.0,9.0,72,0.00,,,0.00,weatherlink.com 1.10,2013-01-20 08:24:00,
2013-01-20 02:39:00,1.6,-6.0,30.45,NNW,331,2.0,8.0,72,0.00,,,0.00,weatherlink.com 1.10,2013-01-20 08:39:00,
2013-01-20 02:54:00,1.6,-6.0,30.46,WNW,287,0.0,8.0,72,0.00,,,0.00,weatherlink.com 1.10,2013-01-20 08:54:00,
2013-01-20 03:09:00,1.5,-6.0,30.46,West,273,3.0,6.0,72,0.00,,,0.00,weatherlink.com 1.10,2013-01-20 09:09:00,
2013-01-20 03:24:00,1.5,-6.0,30.47,WNW,295,1.0,8.0,72,0.00,,,0.00,weatherlink.com 1.10,2013-01-20 09:24:00,
2013-01-20 03:39:00,1.2,-6.0,30.48,NW,311,1.0,10.0,72,0.00,,,0.00,weatherlink.com 1.10,2013-01-20 09:39:00,
2013-01-20 03:54:00,1.1,-6.0,30.48,NW,306,7.0,9.0,73,0.00,,,0.00,weatherlink.com 1.10,2013-01-20 09:54:00,
2013-01-20 04:09:00,0.9,-6.0,30.48,WNW,286,3.0,10.0,72,0.00,,,0.00,weatherlink.com 1.10,2013-01-20 10:09:00,
2013-01-20 04:24:00,0.7,-6.0,30.48,WNW,292,3.0,9.0,73,0.00,,,0.00,weatherlink.com 1.10,2013-01-20 10:24:00,
2013-01-20 04:43:00,0.6,-6.0,30.48,NW,308,1.0,5.0,72,0.00,,,0.00,weatherlink.com 1.10,2013-01-20 10:43:00,
2013-01-20 04:54:00,0.4,-6.0,30.48,NW,313,2.0,7.0,73,0.00,,,0.00,weatherlink.com 1.10,2013-01-20 10:54:00,
2013-01-20 05:09:00,0.4,-6.0,30.48,WNW,292,2.0,6.0,73,0.00,,,0.00,weatherlink.com 1.10,2013-01-20 11:09:00,
2013-01-20 05:25:00,0.4,-6.0,30.49,West,277,2.0,7.0,73,0.00,,,0.00,weatherlink.com 1.10,2013-01-20 11:25:00,
2013-01-20 05:40:00,0.3,-6.0,30.49,NW,310,0.0,7.0,73,0.00,,,0.00,weatherlink.com 1.10,2013-01-20 11:40:00,
2013-01-20 05:55:00,0.1,-7.0,30.49,WNW,293,1.0,6.0,73,0.00,,,0.00,weatherlink.com 1.10,2013-01-20 11:55:00,
2013-01-20 06:10:00,0.1,-7.0,30.50,WNW,300,1.0,7.0,73,0.00,,,0.00,weatherlink.com 1.10,2013-01-20 12:10:00,
2013-01-20 06:25:00,0.1,-7.0,30.50,WNW,286,0.0,5.0,73,0.00,,,0.00,weatherlink.com 1.10,2013-01-20 12:25:00,
2013-01-20 06:40:00,0.2,-7.0,30.49,NW,316,1.0,5.0,73,0.00,,,0.00,weatherlink.com 1.10,2013-01-20 12:40:00,
2013-01-20 06:55:00,0.3,-6.0,30.50,West,277,3.0,4.0,74,0.00,,,0.00,weatherlink.com 1.10,2013-01-20 12:55:00,
2013-01-20 07:10:00,0.3,-6.0,30.50,NNW,342,1.0,5.0,73,0.00,,,0.00,weatherlink.com 1.10,2013-01-20 13:10:00,
2013-01-20 07:25:00,0.2,-7.0,30.50,NNW,330,1.0,6.0,73,0.00,,,0.00,weatherlink.com 1.10,2013-01-20 13:25:00,
2013-01-20 07:40:00,0.1,-7.0,30.49,WNW,283,3.0,3.0,73,0.00,,,0.00,weatherlink.com 1.10,2013-01-20 13:40:00,
2013-01-20 07:55:00,0.2,-6.0,30.51,NNW,327,0.0,3.0,74,0.00,,,0.00,weatherlink.com 1.10,2013-01-20 13:55:00,
2013-01-20 08:10:00,0.4,-6.0,30.51,WNW,287,1.0,4.0,74,0.00,,,0.00,weatherlink.com 1.10,2013-01-20 14:10:00,
2013-01-20 08:25:00,0.3,-6.0,30.52,West,280,1.0,5.0,73,0.00,,,0.00,weatherlink.com 1.10,2013-01-20 14:25:00,
2013-01-20 08:40:00,0.5,-6.0,30.53,WNW,288,3.0,7.0,73,0.00,,,0.00,weatherlink.com 1.10,2013-01-20 14:40:00,
2013-01-20 08:56:00,0.6,-6.0,30.54,West,273,0.0,6.0,73,0.00,,,0.00,weatherlink.com 1.10,2013-01-20 14:56:00,
2013-01-20 09:11:00,1.0,-6.0,30.55,WNW,303,0.0,4.0,73,0.00,,,0.00,weatherlink.com 1.10,2013-01-20 15:11:00,
2013-01-20 09:26:00,1.4,-6.0,30.55,North,5,5.0,5.0,72,0.00,,,0.00,weatherlink.com 1.10,2013-01-20 15:26:00,
2013-01-20 09:41:00,1.9,-6.0,30.55,North,9,2.0,6.0,70,0.00,,,0.00,weatherlink.com 1.10,2013-01-20 15:41:00,
2013-01-20 09:56:00,2.0,-6.0,30.56,West,270,3.0,9.0,69,0.00,,,0.00,weatherlink.com 1.10,2013-01-20 15:56:00,
2013-01-20 10:11:00,2.4,-6.0,30.57,WNW,296,4.0,9.0,69,0.00,,,0.00,weatherlink.com 1.10,2013-01-20 16:11:00,
2013-01-20 10:26:00,3.2,-5.0,30.57,NW,304,2.0,7.0,68,0.00,,,0.00,weatherlink.com 1.10,2013-01-20 16:26:00,
2013-01-20 10:41:00,3.4,-5.0,30.57,West,274,7.0,8.0,67,0.00,,,0.00,weatherlink.com 1.10,2013-01-20 16:41:00,
2013-01-20 10:56:00,3.8,-5.0,30.57,NW,319,0.0,10.0,67,0.00,,,0.00,weatherlink.com 1.10,2013-01-20 16:56:00,
2013-01-20 11:11:00,4.3,-5.0,30.57,NNW,340,0.0,9.0,66,0.00,,,0.00,weatherlink.com 1.10,2013-01-20 17:11:00,
2013-01-20 11:26:00,4.8,-5.0,30.56,West,262,3.0,9.0,65,0.00,,,0.00,weatherlink.com 1.10,2013-01-20 17:26:00,
2013-01-20 11:41:00,5.1,-5.0,30.55,WSW,256,3.0,7.0,64,0.00,,,0.00,weatherlink.com 1.10,2013-01-20 17:41:00,
2013-01-20 11:56:00,5.6,-4.0,30.54,WNW,301,3.0,6.0,64,0.00,,,0.00,weatherlink.com 1.10,2013-01-20 17:56:00,
2013-01-20 12:12:00,6.1,-4.0,30.53,West,263,3.0,6.0,62,0.00,,,0.00,weatherlink.com 1.10,2013-01-20 18:12:00,
2013-01-20 12:27:00,6.8,-4.0,30.53,WNW,296,1.0,8.0,61,0.00,,,0.00,weatherlink.com 1.10,2013-01-20 18:27:00,
2013-01-20 12:42:00,6.6,-4.0,30.52,WNW,292,6.0,11.0,61,0.00,,,0.00,weatherlink.com 1.10,2013-01-20 18:42:00,
2013-01-20 12:57:00,6.9,-4.0,30.52,WNW,292,6.0,9.0,61,0.00,,,0.00,weatherlink.com 1.10,2013-01-20 18:57:00,
2013-01-20 13:12:00,7.6,-4.0,30.52,SW,215,2.0,9.0,59,0.00,,,0.00,weatherlink.com 1.10,2013-01-20 19:12:00,
2013-01-20 13:27:00,8.0,-5.0,30.51,WSW,241,4.0,7.0,57,0.00,,,0.00,weatherlink.com 1.10,2013-01-20 19:27:00,
2013-01-20 13:42:00,8.2,-4.0,30.50,West,259,4.0,9.0,57,0.00,,,0.00,weatherlink.com 1.10,2013-01-20 19:42:00,
2013-01-20 13:57:00,7.9,-4.0,30.50,WNW,292,2.0,7.0,58,0.00,,,0.00,weatherlink.com 1.10,2013-01-20 19:57:00,
2013-01-20 14:12:00,7.9,-4.0,30.49,WSW,243,1.0,10.0,58,0.00,,,0.00,weatherlink.com 1.10,2013-01-20 20:12:00,
2013-01-20 14:27:00,8.3,-3.0,30.48,WNW,288,5.0,8.0,59,0.00,,,0.00,weatherlink.com 1.10,2013-01-20 20:27:00,
2013-01-20 14:42:00,8.5,-3.0,30.48,West,263,4.0,7.0,59,0.00,,,0.00,weatherlink.com 1.10,2013-01-20 20:42:00,
2013-01-20 14:57:00,8.5,-3.0,30.48,WNW,295,5.0,8.0,59,0.00,,,0.00,weatherlink.com 1.10,2013-01-20 20:57:00,
2013-01-20 15:12:00,8.1,-3.0,30.48,WNW,302,3.0,10.0,60,0.00,,,0.00,weatherlink.com 1.10,2013-01-20 21:12:00,
2013-01-20 15:27:00,7.9,-3.0,30.49,West,272,4.0,8.0,62,0.00,,,0.00,weatherlink.com 1.10,2013-01-20 21:27:00,
2013-01-20 15:43:00,7.8,-3.0,30.49,West,269,4.0,12.0,63,0.00,,,0.00,weatherlink.com 1.10,2013-01-20 21:43:00,
2013-01-20 15:58:00,7.6,-2.0,30.48,West,279,4.0,10.0,65,0.00,,,0.00,weatherlink.com 1.10,2013-01-20 21:58:00,
2013-01-20 16:13:00,7.3,-1.0,30.49,West,266,4.0,11.0,68,0.00,,,0.00,weatherlink.com 1.10,2013-01-20 22:13:00,
2013-01-20 16:28:00,7.0,0.0,30.48,West,267,0.0,10.0,72,0.00,,,0.00,weatherlink.com 1.10,2013-01-20 22:28:00,
2013-01-20 16:43:00,6.9,1.0,30.48,WSW,256,3.0,9.0,75,0.00,,,0.00,weatherlink.com 1.10,2013-01-20 22:43:00,
2013-01-20 16:58:00,6.9,1.0,30.48,WNW,284,3.0,7.0,77,0.00,,,0.00,weatherlink.com 1.10,2013-01-20 22:58:00,
2013-01-20 17:13:00,7.0,1.0,30.47,WNW,292,0.0,6.0,77,0.00,,,0.00,weatherlink.com 1.10,2013-01-20 23:13:00,
2013-01-20 17:28:00,7.1,1.0,30.47,West,273,2.0,5.0,76,0.00,,,0.00,weatherlink.com 1.10,2013-01-20 23:28:00,
2013-01-20 17:43:00,6.9,0.0,30.46,West,276,1.0,8.0,73,0.00,,,0.00,weatherlink.com 1.10,2013-01-20 23:43:00,
2013-01-20 17:58:00,6.9,1.0,30.47,WSW,244,3.0,6.0,75,0.00,,,0.00,weatherlink.com 1.10,2013-01-20 23:58:00,
2013-01-20 18:13:00,7.0,2.0,30.46,West,264,2.0,5.0,78,0.00,,,0.00,weatherlink.com 1.10,2013-01-21 00:13:00,
2013-01-20 18:28:00,7.0,2.0,30.46,West,268,1.0,7.0,78,0.00,,,0.00,weatherlink.com 1.10,2013-01-21 00:28:00,
2013-01-20 18:43:00,7.0,2.0,30.46,WNW,289,2.0,9.0,79,0.00,,,0.00,weatherlink.com 1.10,2013-01-21 00:43:00,
2013-01-20 19:00:00,6.8,2.0,30.46,North,355,4.0,9.0,79,0.00,,,0.00,weatherlink.com 1.10,2013-01-21 01:00:00,
2013-01-20 19:13:00,6.2,0.0,30.46,WSW,242,4.0,9.0,75,0.00,,,0.00,weatherlink.com 1.10,2013-01-21 01:13:00,
2013-01-20 19:28:00,5.8,-2.0,30.45,WNW,286,7.0,8.0,71,0.00,,,0.00,weatherlink.com 1.10,2013-01-21 01:28:00,
2013-01-20 19:43:00,5.1,-4.0,30.46,NW,309,9.0,16.0,67,0.00,,,0.00,weatherlink.com 1.10,2013-01-21 01:43:00,
2013-01-20 19:58:00,4.2,-5.0,30.46,NNW,334,5.0,12.0,66,0.00,,,0.00,weatherlink.com 1.10,2013-01-21 01:58:00,
2013-01-20 20:14:00,3.5,-6.0,30.45,West,265,3.0,12.0,65,0.00,,,0.00,weatherlink.com 1.10,2013-01-21 02:14:00,
2013-01-20 20:29:00,3.0,-6.0,30.45,NW,319,3.0,14.0,66,0.00,,,0.00,weatherlink.com 1.10,2013-01-21 02:29:00,
2013-01-20 20:44:00,2.7,-6.0,30.45,West,268,4.0,9.0,66,0.00,,,0.00,weatherlink.com 1.10,2013-01-21 02:44:00,
2013-01-20 20:59:00,2.5,-7.0,30.45,WNW,284,5.0,12.0,66,0.00,,,0.00,weatherlink.com 1.10,2013-01-21 02:59:00,
2013-01-20 21:14:00,2.0,-7.0,30.45,WNW,303,6.0,11.0,67,0.00,,,0.00,weatherlink.com 1.10,2013-01-21 03:14:00,
2013-01-20 21:29:00,1.8,-7.0,30.45,WNW,302,8.0,11.0,67,0.00,,,0.00,weatherlink.com 1.10,2013-01-21 03:29:00,
2013-01-20 21:44:00,1.4,-7.0,30.44,WNW,294,3.0,11.0,68,0.00,,,0.00,weatherlink.com 1.10,2013-01-21 03:44:00,
2013-01-20 21:59:00,1.2,-7.0,30.45,WNW,292,12.0,15.0,68,0.00,,,0.00,weatherlink.com 1.10,2013-01-21 03:59:00,
2013-01-20 22:14:00,1.0,-7.0,30.46,NNW,333,6.0,9.0,68,0.00,,,0.00,weatherlink.com 1.10,2013-01-21 04:14:00,
2013-01-20 22:29:00,0.4,-8.0,30.46,NW,311,2.0,12.0,68,0.00,,,0.00,weatherlink.com 1.10,2013-01-21 04:29:00,
2013-01-20 22:44:00,0.1,-8.0,30.46,West,273,8.0,9.0,69,0.00,,,0.00,weatherlink.com 1.10,2013-01-21 04:44:00,
2013-01-20 22:59:00,-0.3,-9.0,30.46,NW,325,8.0,10.0,68,0.00,,,0.00,weatherlink.com 1.10,2013-01-21 04:59:00,
2013-01-20 23:14:00,-0.7,-9.0,30.46,NW,310,5.0,9.0,68,0.00,,,0.00,weatherlink.com 1.10,2013-01-21 05:14:00,
2013-01-20 23:30:00,-1.0,-9.0,30.46,NW,317,5.0,10.0,68,0.00,,,0.00,weatherlink.com 1.10,2013-01-21 05:30:00,
2013-01-20 23:45:00,-1.2,-9.0,30.47,NW,308,1.0,11.0,69,0.00,,,0.00,weatherlink.com 1.10,2013-01-21 05:45:00,